This is the latest recevied weather packets stored in our database for station/object Seibranz. If no packets are shown the sender has not sent any weather packets the latest 10 day(s).
| Time | Temp. | Humidity | Pressure | Rain* | Wind** | Luminosity | Snow |
|---|---|---|---|---|---|---|---|
| 1777831330 | 17.22° C | 52% | 1011.5 hPa | 0 mm | - | - | - |
| 1777829530 | 18.33° C | 47% | 1011.3 hPa | 0 mm | - | - | - |
| 1777827731 | 19.44° C | 45% | 1011.7 hPa | 0 mm | - | - | - |
| 1777825930 | 21.11° C | 41% | 1011.4 hPa | 0 mm | - | - | - |
| 1777824131 | 21.67° C | 41% | 1011.3 hPa | 0 mm | - | - | - |
| 1777822330 | 22.22° C | 32% | 1011.4 hPa | 0 mm | - | - | - |
| 1777820530 | 21.67° C | 35% | 1011.6 hPa | 0 mm | - | - | - |
| 1777818730 | 22.78° C | 35% | 1011.7 hPa | 0 mm | - | - | - |
| 1777816930 | 22.78° C | 37% | 1011.8 hPa | 0 mm | - | - | - |
| 1777815131 | 21.11° C | 33% | 1012.3 hPa | 0 mm | - | - | - |
| 1777813330 | 21.11° C | 38% | 1012.5 hPa | 0 mm | - | - | - |
| 1777811536 | 20.56° C | 44% | 1012.7 hPa | 0 mm | - | - | - |
| 1777809730 | 20.56° C | 46% | 1013 hPa | 0 mm | - | - | - |
| 1777807932 | 21.11° C | 44% | 1013 hPa | 0 mm | - | - | - |
| 1777806130 | 21.11° C | 50% | 1013.3 hPa | 0 mm | - | - | - |
| 1777804332 | 20.56° C | 47% | 1013.6 hPa | 0 mm | - | - | - |
| 1777802532 | 20° C | 50% | 1014.1 hPa | 0 mm | - | - | - |
| 1777800731 | 19.44° C | 52% | 1014.3 hPa | 0 mm | - | - | - |
| 1777798930 | 19.44° C | 53% | 1014.5 hPa | 0 mm | - | - | - |
| 1777797132 | 17.78° C | 60% | 1014.6 hPa | 0 mm | - | - | - |
| 1777795332 | 17.78° C | 57% | 1014.7 hPa | 0 mm | - | - | - |
| 1777793531 | 16.67° C | 61% | 1014.6 hPa | 0 mm | - | - | - |
| 1777791731 | 15.56° C | 54% | 1014.5 hPa | 0 mm | - | - | - |
| 1777789931 | 15.56° C | 58% | 1014.5 hPa | 0 mm | - | - | - |
| 1777788131 | 13.33° C | 65% | 1014.4 hPa | 0 mm | - | - | - |
* Rain since midnight (hover to see other rain measurements)
** Current wind speed in m/s (hover to see current wind gust speed)